Time,TemperatureF,DewpointF,PressureIn,WindDirection,WindDirectionDegrees,WindSpeedMPH,WindSpeedGustMPH,Humidity,HourlyPrecipIn,Conditions,Clouds,dailyrainin,SoftwareType,DateUTC
2013-02-18 00:08:00,38.5,34.4,29.90,North,0,0.0,0.0,85,0.00,,,0.00,WUHU21623XXSP,2013-02-18 08:08:00,
2013-02-18 00:18:00,38.1,33.7,29.91,North,0,0.0,0.0,84,0.00,,,0.00,WUHU21623XXSP,2013-02-18 08:18:00,
2013-02-18 00:28:00,37.9,33.5,29.91,North,0,0.0,0.0,84,0.00,,,0.00,WUHU21623XXSP,2013-02-18 08:28:00,
2013-02-18 00:38:00,37.6,33.5,29.91,North,0,0.0,0.0,85,0.00,,,0.00,WUHU21623XXSP,2013-02-18 08:38:00,
2013-02-18 00:48:00,37.6,33.5,29.91,North,0,0.0,0.0,85,0.00,,,0.00,WUHU21623XXSP,2013-02-18 08:48:00,
2013-02-18 00:58:00,37.6,33.8,29.91,North,0,0.0,0.0,86,0.00,,,0.00,WUHU21623XXSP,2013-02-18 08:58:00,
2013-02-18 01:08:00,37.2,33.4,29.91,North,0,0.0,0.0,86,0.00,,,0.00,WUHU21623XXSP,2013-02-18 09:08:00,
2013-02-18 01:18:00,37.0,33.2,29.91,North,0,0.0,0.0,86,0.00,,,0.00,WUHU21623XXSP,2013-02-18 09:18:00,
2013-02-18 01:28:00,36.9,33.1,29.91,North,0,0.0,0.0,86,0.00,,,0.00,WUHU21623XXSP,2013-02-18 09:28:00,
2013-02-18 01:38:00,36.7,32.9,29.91,North,0,0.0,0.0,86,0.00,,,0.00,WUHU21623XXSP,2013-02-18 09:38:00,
2013-02-18 01:48:00,36.7,32.9,29.91,North,0,0.0,0.0,86,0.00,,,0.00,WUHU21623XXSP,2013-02-18 09:48:00,
2013-02-18 01:58:00,36.5,33.0,29.91,North,0,0.0,0.0,87,0.00,,,0.00,WUHU21623XXSP,2013-02-18 09:58:00,
2013-02-18 02:08:00,36.3,32.8,29.91,North,0,0.0,0.0,87,0.00,,,0.00,WUHU21623XXSP,2013-02-18 10:08:00,
2013-02-18 02:18:00,36.1,32.6,29.91,North,0,0.0,0.0,87,0.00,,,0.00,WUHU21623XXSP,2013-02-18 10:18:00,
2013-02-18 02:28:00,36.1,32.6,29.91,North,0,0.0,0.0,87,0.00,,,0.00,WUHU21623XXSP,2013-02-18 10:28:00,
2013-02-18 02:38:00,36.1,32.6,29.91,North,0,0.0,0.0,87,0.00,,,0.00,WUHU21623XXSP,2013-02-18 10:38:00,
2013-02-18 02:48:00,35.8,32.3,29.91,North,0,0.0,0.0,87,0.00,,,0.00,WUHU21623XXSP,2013-02-18 10:48:00,
2013-02-18 02:58:00,35.8,32.3,29.91,North,0,0.0,0.0,87,0.00,,,0.00,WUHU21623XXSP,2013-02-18 10:58:00,
2013-02-18 03:08:00,35.8,32.3,29.91,North,0,0.0,0.0,87,0.00,,,0.00,WUHU21623XXSP,2013-02-18 11:08:00,
2013-02-18 03:18:00,35.4,31.9,29.90,North,0,0.0,0.0,87,0.00,,,0.00,WUHU21623XXSP,2013-02-18 11:18:00,
2013-02-18 03:28:00,35.4,32.2,29.89,North,0,0.0,0.0,88,0.00,,,0.00,WUHU21623XXSP,2013-02-18 11:28:00,
2013-02-18 03:38:00,35.4,31.9,29.90,North,0,0.0,0.0,87,0.00,,,0.00,WUHU21623XXSP,2013-02-18 11:38:00,
2013-02-18 03:48:00,35.2,31.7,29.90,North,0,0.0,0.0,87,0.00,,,0.00,WUHU21623XXSP,2013-02-18 11:48:00,
2013-02-18 03:58:00,35.2,32.0,29.89,North,0,0.0,0.0,88,0.00,,,0.00,WUHU21623XXSP,2013-02-18 11:58:00,
2013-02-18 04:08:00,35.2,32.0,29.89,North,0,0.0,0.0,88,0.00,,,0.00,WUHU21623XXSP,2013-02-18 12:08:00,
2013-02-18 04:18:00,34.9,31.7,29.89,North,0,0.0,0.0,88,0.00,,,0.00,WUHU21623XXSP,2013-02-18 12:18:00,
2013-02-18 04:28:00,34.7,31.5,29.88,North,0,0.0,0.0,88,0.00,,,0.00,WUHU21623XXSP,2013-02-18 12:28:00,
2013-02-18 04:38:00,34.5,31.3,29.88,North,0,0.0,0.0,88,0.00,,,0.00,WUHU21623XXSP,2013-02-18 12:38:00,
2013-02-18 04:48:00,34.5,31.3,29.89,North,0,0.0,0.0,88,0.00,,,0.00,WUHU21623XXSP,2013-02-18 12:48:00,
2013-02-18 04:58:00,34.3,30.8,29.88,North,0,0.0,0.0,87,0.00,,,0.00,WUHU21623XXSP,2013-02-18 12:58:00,
2013-02-18 05:08:00,34.3,30.8,29.88,North,0,0.0,0.0,87,0.00,,,0.00,WUHU21623XXSP,2013-02-18 13:08:00,
2013-02-18 05:18:00,34.3,31.1,29.88,North,0,0.0,0.0,88,0.00,,,0.00,WUHU21623XXSP,2013-02-18 13:18:00,
2013-02-18 05:28:00,34.3,31.1,29.88,North,0,0.0,0.0,88,0.00,,,0.00,WUHU21623XXSP,2013-02-18 13:28:00,
2013-02-18 05:38:00,34.0,30.8,29.89,North,0,0.0,0.0,88,0.00,,,0.00,WUHU21623XXSP,2013-02-18 13:38:00,
2013-02-18 05:48:00,34.0,30.8,29.88,North,0,0.0,0.0,88,0.00,,,0.00,WUHU21623XXSP,2013-02-18 13:48:00,
2013-02-18 05:58:00,34.0,30.8,29.88,North,0,0.0,0.0,88,0.00,,,0.00,WUHU21623XXSP,2013-02-18 13:58:00,
2013-02-18 06:08:00,34.2,31.0,29.88,North,0,0.0,0.0,88,0.00,,,0.00,WUHU21623XXSP,2013-02-18 14:08:00,
2013-02-18 06:18:00,34.2,31.0,29.88,North,0,0.0,0.0,88,0.00,,,0.00,WUHU21623XXSP,2013-02-18 14:18:00,
2013-02-18 06:28:00,34.3,31.1,29.89,North,0,0.0,0.0,88,0.00,,,0.00,WUHU21623XXSP,2013-02-18 14:28:00,
2013-02-18 06:38:00,34.5,31.5,29.89,North,0,0.0,0.0,89,0.00,,,0.00,WUHU21623XXSP,2013-02-18 14:38:00,
2013-02-18 06:48:00,34.7,31.7,29.89,North,0,0.0,0.0,89,0.00,,,0.00,WUHU21623XXSP,2013-02-18 14:48:00,
2013-02-18 07:03:00,35.1,32.1,29.90,North,0,0.0,0.0,89,0.00,,,0.00,WUHU21623XXSP,2013-02-18 15:03:00,
2013-02-18 07:08:00,35.2,32.3,29.90,North,0,0.0,0.0,89,0.00,,,0.00,WUHU21623XXSP,2013-02-18 15:08:00,
2013-02-18 07:13:00,35.4,32.4,29.90,North,0,0.0,0.0,89,0.00,,,0.00,WUHU21623XXSP,2013-02-18 15:13:00,
2013-02-18 07:18:00,35.4,32.4,29.90,North,0,0.0,0.0,89,0.00,,,0.00,WUHU21623XXSP,2013-02-18 15:18:00,
2013-02-18 07:23:00,35.8,32.5,29.90,North,0,0.0,0.0,88,0.00,,,0.00,WUHU21623XXSP,2013-02-18 15:23:00,
2013-02-18 07:28:00,35.8,32.5,29.90,North,0,0.0,0.0,88,0.00,,,0.00,WUHU21623XXSP,2013-02-18 15:28:00,
2013-02-18 07:33:00,36.1,32.9,29.90,North,0,0.0,0.0,88,0.00,,,0.00,WUHU21623XXSP,2013-02-18 15:33:00,
2013-02-18 07:38:00,36.3,33.0,29.89,North,0,0.0,0.0,88,0.00,,,0.00,WUHU21623XXSP,2013-02-18 15:38:00,
2013-02-18 07:43:00,36.5,33.2,29.89,North,0,0.0,0.0,88,0.00,,,0.00,WUHU21623XXSP,2013-02-18 15:43:00,
2013-02-18 07:48:00,36.7,33.4,29.90,North,0,0.0,0.0,88,0.00,,,0.00,WUHU21623XXSP,2013-02-18 15:48:00,
2013-02-18 07:53:00,37.0,34.1,29.90,North,0,0.0,0.0,89,0.00,,,0.00,WUHU21623XXSP,2013-02-18 15:53:00,
2013-02-18 07:58:00,37.2,34.2,29.90,North,0,0.0,0.0,89,0.00,,,0.00,WUHU21623XXSP,2013-02-18 15:58:00,
2013-02-18 08:03:00,37.2,33.9,29.90,North,0,0.0,0.0,88,0.00,,,0.00,WUHU21623XXSP,2013-02-18 16:03:00,
2013-02-18 08:08:00,37.6,34.3,29.90,North,0,0.0,0.0,88,0.00,,,0.00,WUHU21623XXSP,2013-02-18 16:08:00,
2013-02-18 08:13:00,37.9,34.7,29.90,North,0,0.0,0.0,88,0.00,,,0.00,WUHU21623XXSP,2013-02-18 16:13:00,
2013-02-18 08:18:00,38.1,34.8,29.90,North,0,0.0,0.0,88,0.00,,,0.00,WUHU21623XXSP,2013-02-18 16:18:00,
2013-02-18 08:23:00,38.3,35.0,29.90,North,0,0.0,0.0,88,0.00,,,0.00,WUHU21623XXSP,2013-02-18 16:23:00,
2013-02-18 08:28:00,38.8,35.6,29.90,North,0,0.0,0.0,88,0.00,,,0.00,WUHU21623XXSP,2013-02-18 16:28:00,
2013-02-18 08:33:00,39.2,35.6,29.90,North,0,0.0,0.0,87,0.00,,,0.00,WUHU21623XXSP,2013-02-18 16:33:00,
2013-02-18 08:38:00,39.6,36.3,29.91,North,0,0.0,0.0,88,0.00,,,0.00,WUHU21623XXSP,2013-02-18 16:38:00,
2013-02-18 08:43:00,40.1,36.5,29.91,North,0,0.0,0.0,87,0.00,,,0.00,WUHU21623XXSP,2013-02-18 16:43:00,
2013-02-18 08:48:00,40.5,36.8,29.91,North,0,0.0,0.0,87,0.00,,,0.00,WUHU21623XXSP,2013-02-18 16:48:00,
2013-02-18 08:53:00,40.8,36.9,29.90,North,0,0.0,0.0,86,0.00,,,0.00,WUHU21623XXSP,2013-02-18 16:53:00,
2013-02-18 08:58:00,41.2,37.3,29.90,North,0,0.0,0.0,86,0.00,,,0.00,WUHU21623XXSP,2013-02-18 16:58:00,
2013-02-18 09:03:00,41.7,37.8,29.90,North,0,0.0,0.0,86,0.00,,,0.00,WUHU21623XXSP,2013-02-18 17:03:00,
2013-02-18 09:08:00,42.1,38.2,29.90,North,0,0.0,0.0,86,0.00,,,0.00,WUHU21623XXSP,2013-02-18 17:08:00,
2013-02-18 09:13:00,42.6,38.4,29.90,North,0,0.0,0.0,85,0.00,,,0.00,WUHU21623XXSP,2013-02-18 17:13:00,
2013-02-18 09:18:00,43.5,39.3,29.90,North,0,0.0,0.0,85,0.00,,,0.00,WUHU21623XXSP,2013-02-18 17:18:00,
2013-02-18 09:23:00,44.2,40.0,29.90,North,0,0.0,0.0,85,0.00,,,0.00,WUHU21623XXSP,2013-02-18 17:23:00,
2013-02-18 09:28:00,45.0,40.7,29.90,North,0,0.0,0.0,85,0.00,,,0.00,WUHU21623XXSP,2013-02-18 17:28:00,
2013-02-18 09:33:00,46.0,41.5,29.90,North,0,0.0,0.0,84,0.00,,,0.00,WUHU21623XXSP,2013-02-18 17:33:00,
2013-02-18 09:38:00,46.9,42.0,29.90,North,0,0.0,0.0,83,0.00,,,0.00,WUHU21623XXSP,2013-02-18 17:38:00,
2013-02-18 09:43:00,47.8,42.6,29.90,North,0,0.0,0.0,82,0.00,,,0.00,WUHU21623XXSP,2013-02-18 17:43:00,
2013-02-18 09:48:00,48.2,42.9,29.90,North,0,0.0,0.0,82,0.00,,,0.00,WUHU21623XXSP,2013-02-18 17:48:00,
2013-02-18 09:53:00,48.9,43.3,29.90,North,0,0.0,0.0,81,0.00,,,0.00,WUHU21623XXSP,2013-02-18 17:53:00,
2013-02-18 09:58:00,49.3,43.3,29.90,North,0,0.0,0.0,80,0.00,,,0.00,WUHU21623XXSP,2013-02-18 17:58:00,
2013-02-18 10:03:00,49.3,43.3,29.90,North,0,0.0,0.0,80,0.00,,,0.00,WUHU21623XXSP,2013-02-18 18:03:00,
2013-02-18 10:08:00,49.6,43.4,29.89,North,0,0.0,0.0,79,0.00,,,0.00,WUHU21623XXSP,2013-02-18 18:08:00,
2013-02-18 10:13:00,49.8,43.2,29.89,North,0,0.0,0.0,78,0.00,,,0.00,WUHU21623XXSP,2013-02-18 18:13:00,
2013-02-18 10:18:00,49.8,43.2,29.90,North,0,0.0,0.0,78,0.00,,,0.00,WUHU21623XXSP,2013-02-18 18:18:00,
2013-02-18 10:23:00,50.0,43.4,29.90,North,0,0.0,0.0,78,0.00,,,0.00,WUHU21623XXSP,2013-02-18 18:23:00,
2013-02-18 10:28:00,50.4,43.4,29.89,North,0,0.0,0.0,77,0.00,,,0.00,WUHU21623XXSP,2013-02-18 18:28:00,
2013-02-18 10:34:00,50.7,43.8,29.89,North,0,0.0,0.0,77,0.00,,,0.00,WUHU21623XXSP,2013-02-18 18:34:00,
2013-02-18 10:39:00,51.4,44.0,29.90,North,0,0.0,0.0,76,0.00,,,0.00,WUHU21623XXSP,2013-02-18 18:39:00,
2013-02-18 10:44:00,52.0,44.3,29.89,North,0,0.0,0.0,75,0.00,,,0.00,WUHU21623XXSP,2013-02-18 18:44:00,
2013-02-18 10:49:00,52.3,44.0,29.89,North,0,0.0,0.0,73,0.00,,,0.00,WUHU21623XXSP,2013-02-18 18:49:00,
2013-02-18 10:54:00,52.7,44.3,29.89,North,0,0.0,0.0,73,0.00,,,0.00,WUHU21623XXSP,2013-02-18 18:54:00,
2013-02-18 10:59:00,53.2,44.4,29.89,North,0,0.0,0.0,72,0.00,,,0.00,WUHU21623XXSP,2013-02-18 18:59:00,
2013-02-18 11:04:00,53.4,44.2,29.90,North,0,0.0,0.0,71,0.00,,,0.00,WUHU21623XXSP,2013-02-18 19:04:00,
2013-02-18 11:08:00,54.0,44.4,29.89,North,0,0.0,0.0,70,0.00,,,0.00,WUHU21623XXSP,2013-02-18 19:08:00,
2013-02-18 11:14:00,54.1,44.6,29.89,North,0,0.0,0.0,70,0.00,,,0.00,WUHU21623XXSP,2013-02-18 19:14:00,
2013-02-18 11:19:00,54.3,44.4,29.89,North,0,0.0,0.0,69,0.00,,,0.00,WUHU21623XXSP,2013-02-18 19:19:00,
2013-02-18 11:24:00,54.9,44.9,29.89,North,0,0.0,0.0,69,0.00,,,0.00,WUHU21623XXSP,2013-02-18 19:24:00,
2013-02-18 11:29:00,55.0,44.7,29.89,North,0,0.0,0.0,68,0.00,,,0.00,WUHU21623XXSP,2013-02-18 19:29:00,
2013-02-18 11:34:00,55.2,44.4,29.89,North,0,0.0,0.0,67,0.00,,,0.00,WUHU21623XXSP,2013-02-18 19:34:00,
2013-02-18 11:39:00,55.8,44.8,29.88,North,0,0.0,0.0,67,0.00,,,0.00,WUHU21623XXSP,2013-02-18 19:39:00,
2013-02-18 11:44:00,56.1,44.9,29.88,North,0,0.0,0.0,66,0.00,,,0.00,WUHU21623XXSP,2013-02-18 19:44:00,
2013-02-18 11:49:00,56.5,45.2,29.87,North,0,0.0,0.0,66,0.00,,,0.00,WUHU21623XXSP,2013-02-18 19:49:00,
2013-02-18 11:54:00,56.8,45.2,29.87,North,0,0.0,0.0,65,0.00,,,0.00,WUHU21623XXSP,2013-02-18 19:54:00,
2013-02-18 11:59:00,57.4,44.9,29.87,North,0,0.0,0.0,63,0.00,,,0.00,WUHU21623XXSP,2013-02-18 19:59:00,
2013-02-18 12:04:00,57.4,44.9,29.87,North,0,0.0,0.0,63,0.00,,,0.00,WUHU21623XXSP,2013-02-18 20:04:00,
2013-02-18 12:09:00,57.6,44.6,29.87,North,0,0.0,0.0,62,0.00,,,0.00,WUHU21623XXSP,2013-02-18 20:09:00,
2013-02-18 12:14:00,57.7,44.8,29.87,North,0,0.0,0.0,62,0.00,,,0.00,WUHU21623XXSP,2013-02-18 20:14:00,
2013-02-18 12:19:00,58.1,44.7,29.86,North,0,0.0,0.0,61,0.00,,,0.00,WUHU21623XXSP,2013-02-18 20:19:00,
2013-02-18 12:24:00,58.3,44.5,29.86,North,0,0.0,0.0,60,0.00,,,0.00,WUHU21623XXSP,2013-02-18 20:24:00,
2013-02-18 12:29:00,58.3,44.0,29.86,North,0,0.0,0.0,59,0.00,,,0.00,WUHU21623XXSP,2013-02-18 20:29:00,
2013-02-18 12:34:00,58.8,44.5,29.85,North,0,0.0,0.0,59,0.00,,,0.00,WUHU21623XXSP,2013-02-18 20:34:00,
2013-02-18 12:39:00,58.8,44.0,29.85,North,0,0.0,0.0,58,0.00,,,0.00,WUHU21623XXSP,2013-02-18 20:39:00,
2013-02-18 12:44:00,58.3,43.1,29.85,North,0,0.0,0.0,57,0.00,,,0.00,WUHU21623XXSP,2013-02-18 20:44:00,
2013-02-18 12:49:00,57.7,42.6,29.85,North,0,0.0,0.0,57,0.00,,,0.00,WUHU21623XXSP,2013-02-18 20:49:00,
2013-02-18 12:54:00,57.4,42.3,29.86,North,0,0.0,0.0,57,0.00,,,0.00,WUHU21623XXSP,2013-02-18 20:54:00,
2013-02-18 12:59:00,57.4,42.3,29.85,North,0,0.0,0.0,57,0.00,,,0.00,WUHU21623XXSP,2013-02-18 20:59:00,
2013-02-18 13:04:00,57.7,42.6,29.85,North,0,0.0,0.0,57,0.00,,,0.00,WUHU21623XXSP,2013-02-18 21:04:00,
2013-02-18 13:09:00,57.9,42.8,29.85,North,0,0.0,0.0,57,0.00,,,0.00,WUHU21623XXSP,2013-02-18 21:09:00,
2013-02-18 13:14:00,58.6,43.9,29.85,North,0,0.0,0.0,58,0.00,,,0.00,WUHU21623XXSP,2013-02-18 21:14:00,
2013-02-18 13:19:00,59.2,44.4,29.85,North,0,0.0,0.0,58,0.00,,,0.00,WUHU21623XXSP,2013-02-18 21:19:00,
2013-02-18 13:24:00,59.5,44.3,29.84,North,0,0.0,0.0,57,0.00,,,0.00,WUHU21623XXSP,2013-02-18 21:24:00,
2013-02-18 13:29:00,59.7,44.0,29.84,North,0,0.0,0.0,56,0.00,,,0.00,WUHU21623XXSP,2013-02-18 21:29:00,
2013-02-18 13:34:00,59.5,43.8,29.84,North,0,0.0,0.0,56,0.00,,,0.00,WUHU21623XXSP,2013-02-18 21:34:00,
2013-02-18 13:40:00,59.2,43.4,29.83,North,0,0.0,0.0,56,0.00,,,0.00,WUHU21623XXSP,2013-02-18 21:40:00,
2013-02-18 13:44:00,59.4,44.1,29.83,North,0,0.0,0.0,57,0.00,,,0.00,WUHU21623XXSP,2013-02-18 21:44:00,
2013-02-18 13:50:00,59.4,44.1,29.83,North,0,0.0,0.0,57,0.00,,,0.00,WUHU21623XXSP,2013-02-18 21:50:00,
2013-02-18 13:55:00,59.0,43.7,29.83,North,0,0.0,0.0,57,0.00,,,0.00,WUHU21623XXSP,2013-02-18 21:55:00,
2013-02-18 14:00:00,58.8,43.1,29.83,North,0,0.0,0.0,56,0.00,,,0.00,WUHU21623XXSP,2013-02-18 22:00:00,
2013-02-18 14:05:00,58.6,43.4,29.83,North,0,0.0,0.0,57,0.00,,,0.00,WUHU21623XXSP,2013-02-18 22:05:00,
2013-02-18 14:10:00,58.6,43.4,29.82,North,0,0.0,0.0,57,0.00,,,0.00,WUHU21623XXSP,2013-02-18 22:10:00,
2013-02-18 14:15:00,58.8,43.6,29.83,North,0,0.0,0.0,57,0.00,,,0.00,WUHU21623XXSP,2013-02-18 22:15:00,
2013-02-18 14:20:00,58.8,43.6,29.82,North,0,0.0,0.0,57,0.00,,,0.00,WUHU21623XXSP,2013-02-18 22:20:00,
2013-02-18 14:25:00,59.0,43.7,29.82,North,0,0.0,0.0,57,0.00,,,0.00,WUHU21623XXSP,2013-02-18 22:25:00,
2013-02-18 14:31:00,58.8,43.1,29.82,North,0,0.0,0.0,56,0.00,,,0.00,WUHU21623XXSP,2013-02-18 22:31:00,
2013-02-18 14:37:00,58.6,42.9,29.82,North,0,0.0,0.0,56,0.00,,,0.00,WUHU21623XXSP,2013-02-18 22:37:00,
2013-02-18 14:42:00,58.3,43.1,29.82,North,0,0.0,0.0,57,0.00,,,0.00,WUHU21623XXSP,2013-02-18 22:42:00,
2013-02-18 14:47:00,58.5,43.3,29.81,North,0,0.0,0.0,57,0.00,,,0.00,WUHU21623XXSP,2013-02-18 22:47:00,
2013-02-18 14:52:00,58.6,43.4,29.82,North,0,0.0,0.0,57,0.00,,,0.00,WUHU21623XXSP,2013-02-18 22:52:00,
2013-02-18 14:57:00,58.5,43.3,29.82,North,0,0.0,0.0,57,0.00,,,0.00,WUHU21623XXSP,2013-02-18 22:57:00,
2013-02-18 15:02:00,58.1,42.9,29.82,North,0,0.0,0.0,57,0.00,,,0.00,WUHU21623XXSP,2013-02-18 23:02:00,
2013-02-18 15:07:00,57.9,42.8,29.81,North,0,0.0,0.0,57,0.00,,,0.00,WUHU21623XXSP,2013-02-18 23:07:00,
2013-02-18 15:12:00,57.7,42.6,29.81,North,0,0.0,0.0,57,0.00,,,0.00,WUHU21623XXSP,2013-02-18 23:12:00,
2013-02-18 15:17:00,57.4,42.7,29.81,North,0,0.0,0.0,58,0.00,,,0.00,WUHU21623XXSP,2013-02-18 23:17:00,
2013-02-18 15:22:00,57.0,42.4,29.80,North,0,0.0,0.0,58,0.00,,,0.00,WUHU21623XXSP,2013-02-18 23:22:00,
2013-02-18 15:27:00,57.0,42.4,29.80,North,0,0.0,0.0,58,0.00,,,0.00,WUHU21623XXSP,2013-02-18 23:27:00,
2013-02-18 15:32:00,56.8,42.2,29.80,North,0,0.0,0.0,58,0.00,,,0.00,WUHU21623XXSP,2013-02-18 23:32:00,
2013-02-18 15:37:00,56.7,42.5,29.80,North,0,0.0,0.0,59,0.00,,,0.00,WUHU21623XXSP,2013-02-18 23:37:00,
2013-02-18 15:42:00,56.5,42.3,29.80,North,0,0.0,0.0,59,0.00,,,0.00,WUHU21623XXSP,2013-02-18 23:42:00,
2013-02-18 15:47:00,56.1,42.4,29.80,North,0,0.0,0.0,60,0.00,,,0.00,WUHU21623XXSP,2013-02-18 23:47:00,
2013-02-18 15:52:00,55.9,42.3,29.80,North,0,0.0,0.0,60,0.00,,,0.00,WUHU21623XXSP,2013-02-18 23:52:00,
2013-02-18 15:57:00,55.8,42.5,29.79,North,0,0.0,0.0,61,0.00,,,0.00,WUHU21623XXSP,2013-02-18 23:57:00,
2013-02-18 16:02:00,55.8,42.5,29.79,North,0,0.0,0.0,61,0.00,,,0.00,WUHU21623XXSP,2013-02-19 00:02:00,
2013-02-18 16:07:00,55.4,42.1,29.79,North,0,0.0,0.0,61,0.00,,,0.00,WUHU21623XXSP,2013-02-19 00:07:00,
2013-02-18 16:12:00,55.2,42.4,29.79,North,0,0.0,0.0,62,0.00,,,0.00,WUHU21623XXSP,2013-02-19 00:12:00,
2013-02-18 16:17:00,55.0,42.2,29.80,North,0,0.0,0.0,62,0.00,,,0.00,WUHU21623XXSP,2013-02-19 00:17:00,
2013-02-18 16:22:00,54.7,42.3,29.79,North,0,0.0,0.0,63,0.00,,,0.00,WUHU21623XXSP,2013-02-19 00:22:00,
2013-02-18 16:27:00,54.5,42.5,29.79,North,0,0.0,0.0,64,0.00,,,0.00,WUHU21623XXSP,2013-02-19 00:27:00,
2013-02-18 16:32:00,54.3,42.4,29.79,North,0,0.0,0.0,64,0.00,,,0.00,WUHU21623XXSP,2013-02-19 00:32:00,
2013-02-18 16:37:00,53.8,42.2,29.80,North,0,0.0,0.0,65,0.00,,,0.00,WUHU21623XXSP,2013-02-19 00:37:00,
2013-02-18 16:42:00,53.4,42.3,29.80,North,0,0.0,0.0,66,0.00,,,0.00,WUHU21623XXSP,2013-02-19 00:42:00,
2013-02-18 16:47:00,53.1,42.0,29.80,North,0,0.0,0.0,66,0.00,,,0.00,WUHU21623XXSP,2013-02-19 00:47:00,
2013-02-18 16:52:00,52.9,42.2,29.79,North,0,0.0,0.0,67,0.00,,,0.00,WUHU21623XXSP,2013-02-19 00:52:00,
2013-02-18 16:57:00,52.3,42.1,29.80,North,0,0.0,0.0,68,0.00,,,0.00,WUHU21623XXSP,2013-02-19 00:57:00,
2013-02-18 17:02:00,51.6,41.8,29.80,North,0,0.0,0.0,69,0.00,,,0.00,WUHU21623XXSP,2013-02-19 01:02:00,
2013-02-18 17:07:00,51.1,41.3,29.80,North,0,0.0,0.0,69,0.00,,,0.00,WUHU21623XXSP,2013-02-19 01:07:00,
2013-02-18 17:12:00,50.5,41.2,29.81,North,0,0.0,0.0,70,0.00,,,0.00,WUHU21623XXSP,2013-02-19 01:12:00,
2013-02-18 17:17:00,49.8,40.5,29.80,North,0,0.0,0.0,70,0.00,,,0.00,WUHU21623XXSP,2013-02-19 01:17:00,
2013-02-18 17:22:00,49.5,40.1,29.80,North,0,0.0,0.0,70,0.00,,,0.00,WUHU21623XXSP,2013-02-19 01:22:00,
2013-02-18 17:27:00,48.9,39.9,29.81,North,0,0.0,0.0,71,0.00,,,0.00,WUHU21623XXSP,2013-02-19 01:27:00,
2013-02-18 17:32:00,48.6,39.5,29.81,North,0,0.0,0.0,71,0.00,,,0.00,WUHU21623XXSP,2013-02-19 01:32:00,
2013-02-18 17:37:00,48.0,39.4,29.81,North,0,0.0,0.0,72,0.00,,,0.00,WUHU21623XXSP,2013-02-19 01:37:00,
2013-02-18 17:42:00,48.0,39.4,29.81,North,0,0.0,0.0,72,0.00,,,0.00,WUHU21623XXSP,2013-02-19 01:42:00,
2013-02-18 17:47:00,47.8,39.2,29.82,North,0,0.0,0.0,72,0.00,,,0.00,WUHU21623XXSP,2013-02-19 01:47:00,
2013-02-18 17:52:00,47.5,39.2,29.82,North,0,0.0,0.0,73,0.00,,,0.00,WUHU21623XXSP,2013-02-19 01:52:00,
2013-02-18 17:57:00,47.3,39.1,29.82,North,0,0.0,0.0,73,0.00,,,0.00,WUHU21623XXSP,2013-02-19 01:57:00,
2013-02-18 18:02:00,47.1,38.9,29.82,North,0,0.0,0.0,73,0.00,,,0.00,WUHU21623XXSP,2013-02-19 02:02:00,
2013-02-18 18:07:00,47.1,39.2,29.82,North,0,0.0,0.0,74,0.00,,,0.00,WUHU21623XXSP,2013-02-19 02:07:00,
2013-02-18 18:12:00,46.9,39.1,29.83,North,0,0.0,0.0,74,0.00,,,0.00,WUHU21623XXSP,2013-02-19 02:12:00,
2013-02-18 18:17:00,46.8,38.9,29.82,North,0,0.0,0.0,74,0.00,,,0.00,WUHU21623XXSP,2013-02-19 02:17:00,
2013-02-18 18:23:00,46.6,38.8,29.82,North,0,0.0,0.0,74,0.00,,,0.00,WUHU21623XXSP,2013-02-19 02:23:00,
2013-02-18 18:28:00,46.6,38.8,29.83,North,0,0.0,0.0,74,0.00,,,0.00,WUHU21623XXSP,2013-02-19 02:28:00,
2013-02-18 18:33:00,46.6,38.8,29.84,North,0,0.0,0.0,74,0.00,,,0.00,WUHU21623XXSP,2013-02-19 02:33:00,
2013-02-18 18:38:00,46.2,38.4,29.83,North,0,0.0,0.0,74,0.00,,,0.00,WUHU21623XXSP,2013-02-19 02:38:00,
2013-02-18 18:43:00,46.2,38.4,29.84,North,0,0.0,0.0,74,0.00,,,0.00,WUHU21623XXSP,2013-02-19 02:43:00,
2013-02-18 18:48:00,46.2,38.4,29.84,North,0,0.0,0.0,74,0.00,,,0.00,WUHU21623XXSP,2013-02-19 02:48:00,
2013-02-18 18:53:00,46.0,38.2,29.84,North,0,0.0,0.0,74,0.00,,,0.00,WUHU21623XXSP,2013-02-19 02:53:00,
2013-02-18 18:58:00,46.0,38.2,29.83,North,0,0.0,0.0,74,0.00,,,0.00,WUHU21623XXSP,2013-02-19 02:58:00,
2013-02-18 19:03:00,46.0,38.6,29.83,North,0,0.0,0.0,75,0.00,,,0.00,WUHU21623XXSP,2013-02-19 03:03:00,
2013-02-18 19:08:00,46.0,38.6,29.84,North,0,0.0,0.0,75,0.00,,,0.00,WUHU21623XXSP,2013-02-19 03:08:00,
2013-02-18 19:13:00,46.0,38.6,29.83,North,0,0.0,0.0,75,0.00,,,0.00,WUHU21623XXSP,2013-02-19 03:13:00,
2013-02-18 19:18:00,46.0,38.6,29.83,North,0,0.0,0.0,75,0.00,,,0.00,WUHU21623XXSP,2013-02-19 03:18:00,
2013-02-18 19:23:00,45.9,38.4,29.83,North,0,0.0,0.0,75,0.00,,,0.00,WUHU21623XXSP,2013-02-19 03:23:00,
2013-02-18 19:28:00,46.0,38.6,29.83,North,0,0.0,0.0,75,0.00,,,0.00,WUHU21623XXSP,2013-02-19 03:28:00,
2013-02-18 19:33:00,45.9,38.4,29.82,North,0,0.0,0.0,75,0.00,,,0.00,WUHU21623XXSP,2013-02-19 03:33:00,
2013-02-18 19:38:00,45.7,38.2,29.82,North,0,0.0,0.0,75,0.00,,,0.00,WUHU21623XXSP,2013-02-19 03:38:00,
2013-02-18 19:43:00,45.7,38.2,29.82,North,0,0.0,0.0,75,0.00,,,0.00,WUHU21623XXSP,2013-02-19 03:43:00,
2013-02-18 19:48:00,45.7,38.2,29.81,North,0,0.0,0.0,75,0.00,,,0.00,WUHU21623XXSP,2013-02-19 03:48:00,
2013-02-18 19:53:00,45.7,38.2,29.81,North,0,0.0,0.0,75,0.00,,,0.00,WUHU21623XXSP,2013-02-19 03:53:00,
2013-02-18 19:58:00,45.7,38.2,29.81,North,0,0.0,0.0,75,0.00,,,0.00,WUHU21623XXSP,2013-02-19 03:58:00,
2013-02-18 20:03:00,45.7,38.2,29.82,North,0,0.0,0.0,75,0.00,,,0.00,WUHU21623XXSP,2013-02-19 04:03:00,
2013-02-18 20:08:00,45.7,38.2,29.81,North,0,0.0,0.0,75,0.00,,,0.00,WUHU21623XXSP,2013-02-19 04:08:00,
2013-02-18 20:13:00,45.7,38.2,29.81,North,0,0.0,0.0,75,0.00,,,0.00,WUHU21623XXSP,2013-02-19 04:13:00,
2013-02-18 20:19:00,45.7,38.6,29.81,North,0,0.0,0.0,76,0.00,,,0.00,WUHU21623XXSP,2013-02-19 04:19:00,
2013-02-18 20:23:00,45.5,38.4,29.81,North,0,0.0,0.0,76,0.00,,,0.00,WUHU21623XXSP,2013-02-19 04:23:00,
2013-02-18 20:29:00,45.5,38.0,29.81,North,0,0.0,0.0,75,0.00,,,0.00,WUHU21623XXSP,2013-02-19 04:29:00,
2013-02-18 20:34:00,45.7,38.6,29.82,North,0,0.0,0.0,76,0.00,,,0.00,WUHU21623XXSP,2013-02-19 04:34:00,
2013-02-18 20:39:00,45.5,38.4,29.81,North,0,0.0,0.0,76,0.00,,,0.00,WUHU21623XXSP,2013-02-19 04:39:00,
2013-02-18 20:44:00,45.5,38.4,29.82,North,0,0.0,0.0,76,0.00,,,0.00,WUHU21623XXSP,2013-02-19 04:44:00,
2013-02-18 20:49:00,45.7,38.2,29.81,North,0,0.0,0.0,75,0.00,,,0.00,WUHU21623XXSP,2013-02-19 04:49:00,
2013-02-18 20:54:00,45.5,38.0,29.82,North,0,0.0,0.0,75,0.00,,,0.00,WUHU21623XXSP,2013-02-19 04:54:00,
2013-02-18 20:59:00,45.5,38.0,29.81,North,0,0.0,0.0,75,0.00,,,0.00,WUHU21623XXSP,2013-02-19 04:59:00,
2013-02-18 21:00:00,45.5,38.0,29.81,North,0,0.0,0.0,75,0.00,,,0.00,WUHU21623XXSP,2013-02-19 05:00:00,
2013-02-18 21:08:00,45.3,37.9,29.82,North,0,0.0,0.0,75,0.00,,,0.00,WUHU21623XXSP,2013-02-19 05:08:00,
2013-02-18 21:18:00,45.0,37.6,29.82,North,0,0.0,0.0,75,0.00,,,0.00,WUHU21623XXSP,2013-02-19 05:18:00,
2013-02-18 21:28:00,44.6,37.6,29.82,North,0,0.0,0.0,76,0.00,,,0.00,WUHU21623XXSP,2013-02-19 05:28:00,
2013-02-18 21:38:00,44.4,37.4,29.82,North,0,0.0,0.0,76,0.00,,,0.00,WUHU21623XXSP,2013-02-19 05:38:00,
2013-02-18 21:48:00,44.2,37.2,29.82,North,0,0.0,0.0,76,0.00,,,0.00,WUHU21623XXSP,2013-02-19 05:48:00,
2013-02-18 21:58:00,44.1,37.1,29.82,North,0,0.0,0.0,76,0.00,,,0.00,WUHU21623XXSP,2013-02-19 05:58:00,
2013-02-18 22:08:00,43.9,37.2,29.82,North,0,0.0,0.0,77,0.00,,,0.00,WUHU21623XXSP,2013-02-19 06:08:00,
2013-02-18 22:18:00,43.7,36.7,29.82,North,0,0.0,0.0,76,0.00,,,0.00,WUHU21623XXSP,2013-02-19 06:18:00,
2013-02-18 22:38:00,43.5,36.5,29.82,North,0,0.0,0.0,76,0.00,,,0.00,WUHU21623XXSP,2013-02-19 06:38:00,
2013-02-18 22:48:00,43.3,36.3,29.82,North,0,0.0,0.0,76,0.00,,,0.00,WUHU21623XXSP,2013-02-19 06:48:00,
2013-02-18 22:58:00,43.2,36.2,29.82,North,0,0.0,0.0,76,0.00,,,0.00,WUHU21623XXSP,2013-02-19 06:58:00,
2013-02-18 23:08:00,43.2,36.2,29.82,North,0,0.0,0.0,76,0.00,,,0.00,WUHU21623XXSP,2013-02-19 07:08:00,
2013-02-18 23:18:00,43.0,36.0,29.81,North,0,0.0,0.0,76,0.00,,,0.00,WUHU21623XXSP,2013-02-19 07:18:00,
2013-02-18 23:28:00,43.0,36.0,29.81,North,0,0.0,0.0,76,0.00,,,0.00,WUHU21623XXSP,2013-02-19 07:28:00,
2013-02-18 23:38:00,42.6,35.9,29.82,North,0,0.0,0.0,77,0.00,,,0.00,WUHU21623XXSP,2013-02-19 07:38:00,
2013-02-18 23:48:00,42.6,35.9,29.81,North,0,0.0,0.0,77,0.00,,,0.00,WUHU21623XXSP,2013-02-19 07:48:00,
2013-02-18 23:58:00,42.6,36.3,29.82,North,0,0.0,0.0,78,0.00,,,0.00,WUHU21623XXSP,2013-02-19 07:58:00,